Location: Bukovany
(49.8234°N, 14.6297°E)
Time: 23:26:26
(UTC+00:00)

ATLAS 2AS CENTAUR R/B - Visible Passes

Search period start: 15 February 2026 00:00
Search period end: 25 February 2026 00:00
Orbit: 1050 x 1161 km, 63.7° (Epoch: 15 February)

Date Brightness Start Highest point End Pass type
(mag) Time Alt. Az. Time Alt. Az. Time Alt. Az.
15 Feb 4.1 18:19:25 10° NW 18:25:00 25° N 18:28:12 18° NE visible
15 Feb 3.9 20:11:14 10° NW 20:15:37 34° N 20:15:37 34° N visible
15 Feb 5.1 22:02:14 10° NW 22:03:02 14° NW 22:03:02 14° NW visible
16 Feb 4.1 17:33:45 10° WNW 17:39:19 25° N 17:44:38 11° NE visible
16 Feb 3.6 19:26:05 10° NW 19:32:03 34° NNE 19:32:03 34° NNE visible
16 Feb 4.6 21:17:06 10° NW 21:19:28 23° NW 21:19:28 23° NW visible
17 Feb 4.1 16:47:57 10° WNW 16:53:39 27° N 16:59:19 10° NE visible
17 Feb 3.8 18:40:49 10° NW 18:46:39 29° NNE 18:48:30 26° NE visible
17 Feb 3.9 20:32:02 10° NW 20:35:55 36° NNW 20:35:55 36° NNW visible
17 Feb 5.3 22:23:19 10° NW 22:23:20 10° NW 22:23:20 10° NW visible
18 Feb 4.0 17:55:24 10° NW 18:01:02 26° N 18:04:58 16° NE visible
18 Feb 3.3 19:46:58 10° NW 19:52:23 44° N 19:52:23 44° N visible
18 Feb 4.8 21:38:01 10° NW 21:39:48 19° NW 21:39:48 19° NW visible
19 Feb 4.1 17:09:49 10° NW 17:15:22 25° N 17:20:52 10° NE visible
19 Feb 3.3 19:01:51 10° NW 19:08:09 38° NNE 19:08:52 37° NE visible
19 Feb 4.1 20:52:51 10° NW 20:56:18 33° NW 20:56:18 33° NW visible
20 Feb 3.7 18:16:39 10° NW 18:22:39 32° NNE 18:25:23 24° ENE visible
20 Feb 3.2 20:07:45 10° NW 20:12:48 52° NNW 20:12:48 52° NNW visible
20 Feb 5.1 21:59:16 10° WNW 22:00:14 14° WNW 22:00:14 14° WNW visible
21 Feb 3.9 17:31:19 10° NW 17:37:04 28° NNE 17:41:55 13° ENE visible
21 Feb 2.8 19:22:41 10° NW 19:29:20 57° NE 19:29:20 57° NE visible
21 Feb 4.4 21:13:50 10° NW 21:16:46 25° WNW 21:16:46 25° WNW visible
22 Feb 3.2 18:37:35 10° NW 18:44:03 43° NNE 18:45:55 36° ENE visible
22 Feb 3.5 20:28:36 10° NW 20:33:21 46° WNW 20:33:21 46° WNW visible
23 Feb 3.5 17:52:27 10° NW 17:58:36 35° NNE 18:02:31 20° ENE visible
23 Feb 2.6 19:43:28 10° NW 19:49:57 82° NW 19:49:57 82° NW visible
23 Feb 4.8 21:35:21 10° WNW 21:37:24 17° WNW 21:37:24 17° WNW visible
24 Feb 3.7 17:07:12 10° NW 17:13:04 30° NNE 17:18:54 10° ENE visible
24 Feb 2.6 18:58:23 10° NW 19:05:10 67° NE 19:06:37 53° E visible
24 Feb 4.1 20:49:43 10° NW 20:54:03 30° W 20:54:03 30° W visible
